Tomorrow-S6

operational
NORAD ID: 63225 Int'l Des: 2025-052R Owner: TOMIO Country: US
LEOCIRCULARRETROGRADESSO

About Tomorrow-S6

Description loading...

Live Position

Loading 3D Globe...

Upcoming Passes

Altitude History

Altitude vs Time

uPlot chart will show altitude changes over time

Two-Line Element Set

1 63225U 25052R 26062.18363932 .00005849 00000-0 26352-3 0 9990
2 63225 97.4141 316.7130 0006371 132.9522 227.2249 15.21418807 53720
Epoch: Mar 3, 2026 • Age: 35 hours

Current Status

Altitude 500.5 km
Velocity 7.62 km/s
Sub-Earth Point 11.77°N, 170.28°E
Launch Date Mar 15, 2025
Age 0.9 years
Type other

Technical Details

Classification Payload
Mass 12.00 kg
Dry Mass 12.00 kg
Total Mass 12.00 kg
Length 0.30 m
Diameter 0.20 m
Span 1.20 m
Shape Box+2 pan
Manufacturer BLCAN
Bus Type Cubesat 6U
Phase Status In Orbit
Owner/State TOMIO/US

Large Constellations

Loading constellations...